When you browse on this site, cookies collect data to enhance your experience and personalize the content and advertising you see.
Visit our Privacy Policy to learn more. By continuing to use the site, you agree to this use of cookies and data.
  • în România
  • Lista ţărilor
  • Pe 7 zile
  • Temperatura apei
  • Hartă satelitară
  • Meteo pe hartă
  • Widget-uri
  • user-avatar
    Intrare

    Meteo pe oră la Tibissa

    Astăzi, 26 Iunie, Miercuri

    Timp Temperatura Precipitaţii Vânt Presiune Umiditate
    00:00 +30°C° 0 mm 2 m/s 690 mmHg 25%
    01:00 +29°C° 0 mm 1 m/s 689 mmHg 29%
    02:00 +28°C° 0 mm 1 m/s 689 mmHg 29%
    03:00 +28°C° 0 mm 1 m/s 688 mmHg 30%
    04:00 +25°C° 0 mm 0 m/s 688 mmHg 30%
    05:00 +26°C° 0 mm 0 m/s 689 mmHg 27%
    06:00 +30°C° 0 mm 1 m/s 689 mmHg 23%
    07:00 +31°C° 0 mm 1 m/s 690 mmHg 20%
    08:00 +34°C° 0 mm 2 m/s 690 mmHg 19%
    09:00 +36°C° 0 mm 3 m/s 691 mmHg 17%
    10:00 +37°C° 0 mm 3 m/s 691 mmHg 16%
    11:00 +38°C° 0 mm 4 m/s 691 mmHg 15%
    12:00 +40°C° 0 mm 5 m/s 691 mmHg 13%
    13:00 +41°C° 0 mm 5 m/s 691 mmHg 12%
    14:00 +41°C° 0 mm 5 m/s 690 mmHg 11%
    15:00 +41°C° 0 mm 6 m/s 690 mmHg 11%
    16:00 +41°C° 0 mm 6 m/s 690 mmHg 10%
    17:00 +40°C° 0 mm 7 m/s 689 mmHg 12%
    18:00 +39°C° 0 mm 7 m/s 689 mmHg 14%
    19:00 +38°C° 0 mm 7 m/s 689 mmHg 15%
    20:00 +34°C° 0 mm 6 m/s 689 mmHg 23%
    21:00 +32°C° 0 mm 4 m/s 689 mmHg 31%
    22:00 +29°C° 0 mm 2 m/s 689 mmHg 38%
    23:00 +28°C° 0 mm 2 m/s 689 mmHg 41%

    Mâine, 27 Iunie, Joi

    Timp Temperatura Precipitaţii Vânt Presiune Umiditate
    00:00 +27°C° 0 mm 1 m/s 689 mmHg 45%
    01:00 +26°C° 0 mm 1 m/s 689 mmHg 48%
    02:00 +26°C° 0 mm 1 m/s 688 mmHg 50%
    03:00 +25°C° 0 mm 1 m/s 688 mmHg 52%
    04:00 +24°C° 0 mm 1 m/s 688 mmHg 55%
    05:00 +25°C° 0 mm 2 m/s 688 mmHg 51%
    06:00 +25°C° 0 mm 2 m/s 688 mmHg 48%
    07:00 +26°C° 0 mm 2 m/s 688 mmHg 44%
    08:00 +27°C° 0 mm 2 m/s 689 mmHg 38%
    09:00 +29°C° 0 mm 3 m/s 689 mmHg 33%
    10:00 +30°C° 0 mm 3 m/s 689 mmHg 27%
    11:00 +32°C° 0 mm 4 m/s 689 mmHg 25%
    12:00 +33°C° 0 mm 4 m/s 689 mmHg 23%
    13:00 +34°C° 0 mm 4 m/s 689 mmHg 21%
    14:00 +34°C° 0 mm 4 m/s 689 mmHg 20%
    15:00 +35°C° 0 mm 4 m/s 688 mmHg 19%
    16:00 +35°C° 0 mm 4 m/s 688 mmHg 19%
    17:00 +34°C° 0 mm 4 m/s 688 mmHg 19%
    18:00 +34°C° 0 mm 4 m/s 687 mmHg 20%
    19:00 +33°C° 0 mm 4 m/s 687 mmHg 21%
    20:00 +32°C° 0 mm 4 m/s 687 mmHg 26%
    21:00 +29°C° 0 mm 5 m/s 688 mmHg 31%
    22:00 +28°C° 0 mm 5 m/s 688 mmHg 36%
    23:00 +27°C° 0 mm 4 m/s 688 mmHg 41%

    Poimâine, 28 Iunie, Vineri

    Timp Temperatura Precipitaţii Vânt Presiune Umiditate
    00:00 +26°C° 0 mm 2 m/s 687 mmHg 47%
    01:00 +25°C° 0 mm 1 m/s 687 mmHg 52%
    02:00 +24°C° 0 mm 1 m/s 687 mmHg 53%
    03:00 +24°C° 0 mm 1 m/s 686 mmHg 55%
    04:00 +21°C° 0 mm 0 m/s 686 mmHg 56%
    05:00 +24°C° 0 mm 1 m/s 686 mmHg 52%
    06:00 +25°C° 0 mm 1 m/s 687 mmHg 48%
    07:00 +26°C° 0 mm 1 m/s 687 mmHg 44%
    08:00 +27°C° 0 mm 2 m/s 687 mmHg 40%
    09:00 +28°C° 0 mm 2 m/s 687 mmHg 36%
    10:00 +30°C° 0 mm 3 m/s 688 mmHg 32%
    11:00 +31°C° 0 mm 3 m/s 687 mmHg 28%
    12:00 +33°C° 0 mm 4 m/s 687 mmHg 24%
    13:00 +34°C° 0 mm 4 m/s 687 mmHg 20%
    14:00 +34°C° 0 mm 4 m/s 687 mmHg 19%
    15:00 +35°C° 0 mm 5 m/s 687 mmHg 18%
    16:00 +35°C° 0 mm 5 m/s 686 mmHg 18%
    17:00 +34°C° 0 mm 5 m/s 686 mmHg 18%
    18:00 +34°C° 0 mm 5 m/s 686 mmHg 19%
    19:00 +33°C° 0 mm 5 m/s 686 mmHg 20%
    20:00 +32°C° 0 mm 4 m/s 686 mmHg 27%
    21:00 +29°C° 0 mm 4 m/s 687 mmHg 34%
    22:00 +28°C° 0 mm 3 m/s 687 mmHg 41%
    23:00 +27°C° 0 mm 3 m/s 686 mmHg 44%

    29 Iunie, Sâmbătă

    Timp Temperatura Precipitaţii Vânt Presiune Umiditate
    00:00 +26°C° 0 mm 2 m/s 686 mmHg 48%
    01:00 +25°C° 0 mm 1 m/s 686 mmHg 51%
    02:00 +25°C° 0 mm 1 m/s 686 mmHg 54%
    03:00 +24°C° 0 mm 1 m/s 685 mmHg 56%
    04:00 +21°C° 0 mm 0 m/s 685 mmHg 59%
    05:00 +24°C° 0 mm 1 m/s 685 mmHg 55%
    06:00 +25°C° 0 mm 1 m/s 686 mmHg 51%
    07:00 +26°C° 0 mm 1 m/s 686 mmHg 47%
    08:00 +28°C° 0 mm 1 m/s 687 mmHg 39%
    09:00 +30°C° 0 mm 2 m/s 687 mmHg 30%
    10:00 +32°C° 0 mm 2 m/s 688 mmHg 22%
    11:00 +34°C° 0 mm 3 m/s 688 mmHg 20%
    12:00 +35°C° 0 mm 3 m/s 688 mmHg 19%
    13:00 +36°C° 0 mm 4 m/s 688 mmHg 17%
    14:00 +36°C° 0 mm 4 m/s 687 mmHg 16%
    15:00 +37°C° 0 mm 4 m/s 687 mmHg 16%
    16:00 +37°C° 0 mm 5 m/s 687 mmHg 15%
    17:00 +37°C° 0 mm 4 m/s 687 mmHg 15%
    18:00 +36°C° 0 mm 4 m/s 687 mmHg 15%
    19:00 +36°C° 0 mm 4 m/s 687 mmHg 16%
    20:00 +34°C° 0 mm 4 m/s 687 mmHg 20%
    21:00 +32°C° 0 mm 4 m/s 687 mmHg 24%
    22:00 +29°C° 0 mm 4 m/s 687 mmHg 29%
    23:00 +28°C° 0 mm 3 m/s 687 mmHg 33%

    30 Iunie, Duminică

    Timp Temperatura Precipitaţii Vânt Presiune Umiditate
    00:00 +27°C° 0 mm 2 m/s 687 mmHg 36%
    01:00 +26°C° 0 mm 1 m/s 686 mmHg 40%
    02:00 +26°C° 0 mm 1 m/s 686 mmHg 40%
    03:00 +25°C° 0 mm 1 m/s 686 mmHg 40%
    04:00 +25°C° 0 mm 1 m/s 686 mmHg 40%
    05:00 +26°C° 0 mm 1 m/s 686 mmHg 37%
    06:00 +28°C° 0 mm 1 m/s 687 mmHg 34%
    07:00 +29°C° 0 mm 1 m/s 687 mmHg 31%
    08:00 +31°C° 0 mm 2 m/s 688 mmHg 27%
    09:00 +32°C° 0 mm 2 m/s 688 mmHg 23%
    10:00 +35°C° 0 mm 3 m/s 689 mmHg 19%
    11:00 +36°C° 0 mm 3 m/s 689 mmHg 17%
    12:00 +37°C° 0 mm 4 m/s 688 mmHg 16%
    13:00 +38°C° 0 mm 4 m/s 688 mmHg 14%
    14:00 +38°C° 0 mm 4 m/s 688 mmHg 13%
    15:00 +38°C° 0 mm 4 m/s 688 mmHg 13%
    16:00 +38°C° 0 mm 4 m/s 687 mmHg 12%
    17:00 +39°C° 0 mm 5 m/s 688 mmHg 13%
    18:00 +37°C° 0 mm 5 m/s 688 mmHg 14%
    19:00 +36°C° 0 mm 5 m/s 688 mmHg 15%
    20:00 +34°C° 0 mm 5 m/s 688 mmHg 24%
    21:00 +32°C° 0 mm 5 m/s 688 mmHg 32%
    22:00 +29°C° 0 mm 5 m/s 688 mmHg 41%
    23:00 +28°C° 0 mm 4 m/s 688 mmHg 44%

    1 Iulie, Luni

    Timp Temperatura Precipitaţii Vânt Presiune Umiditate
    00:00 +27°C° 0 mm 3 m/s 688 mmHg 47%
    01:00 +26°C° 0 mm 1 m/s 687 mmHg 50%
    02:00 +26°C° 0 mm 1 m/s 687 mmHg 52%
    03:00 +25°C° 0 mm 1 m/s 687 mmHg 54%
    04:00 +24°C° 0 mm 1 m/s 686 mmHg 56%
    05:00 +25°C° 0 mm 1 m/s 687 mmHg 52%
    06:00 +26°C° 0 mm 1 m/s 687 mmHg 49%
    07:00 +27°C° 0 mm 1 m/s 688 mmHg 46%
    08:00 +29°C° 0 mm 1 m/s 688 mmHg 40%
    09:00 +30°C° 0 mm 1 m/s 688 mmHg 34%
    10:00 +32°C° 0 mm 1 m/s 689 mmHg 28%
    11:00 +34°C° 0 mm 2 m/s 689 mmHg 24%
    12:00 +36°C° 0 mm 2 m/s 689 mmHg 20%
    13:00 +37°C° 0 mm 3 m/s 689 mmHg 16%
    14:00 +37°C° 0 mm 3 m/s 688 mmHg 16%
    15:00 +37°C° 0 mm 3 m/s 688 mmHg 15%
    16:00 +37°C° 0 mm 4 m/s 688 mmHg 15%
    17:00 +37°C° 0 mm 4 m/s 687 mmHg 16%
    18:00 +36°C° 0 mm 4 m/s 687 mmHg 17%
    19:00 +35°C° 0 mm 4 m/s 687 mmHg 18%
    20:00 +33°C° 0 mm 5 m/s 687 mmHg 26%
    21:00 +29°C° 0 mm 5 m/s 687 mmHg 34%
    22:00 +27°C° 0 mm 6 m/s 687 mmHg 41%
    23:00 +26°C° 0 mm 4 m/s 687 mmHg 44%
    Arată mai mult